Location: Tehran
(35.6961°N, 51.4231°E)
Time: 21:09:54
(UTC+03:30)

ISS - Visible Passes

Search period start: 21 October 2017 00:00
Search period end: 31 October 2017 00:00
Orbit: 401 x 408 km, 51.6° (Epoch: 22 October)

Date Brightness Start Highest point End Pass type
(mag) Time Alt. Az. Time Alt. Az. Time Alt. Az.
28 Oct -1.3 05:25:06 10° S 05:27:41 22° SE 05:30:18 10° ENE visible
29 Oct -0.6 04:34:39 10° SE 04:35:28 11° SE 04:36:18 10° ESE visible
30 Oct -3.5 05:16:10 12° SW 05:19:06 64° SE 05:22:20 10° NE visible
